Windom, MN

2:51 AM CDT on April 26, 2018 (GMT -0500)
Windom Municipal

Weather History for KMWM - December, 2013

Change the Weather History Date:

Tuesday, December 17, 2013

  Actual Average Record
Temperature  
Mean Temperature 22 °F -  
Max Temperature 32 °F 27 °F 55 °F (1962)
Min Temperature 12 °F 10 °F -20 °F (2016)
Degree Days  
Heating Degree Days 43    
Moisture  
Dew Point 19 °F    
Average Humidity 79    
Maximum Humidity 93    
Minimum Humidity 64    
Precipitation  
Precipitation 0.00 in - - ()
Sea Level Pressure  
Sea Level Pressure 30.06 in    
Wind  
Wind Speed 16 mph (West)    
Max Wind Speed 25 mph    
Max Gust Speed 33 mph    
Visibility 10 miles    
Events Snow    
Averages and records for this station are not official NWS values.
T = Trace of Precipitation, MM = Missing Value Source: NWS Daily Summary

Daily Weather History Graph

Daily Weather History Graph

Search for Another Location

Airport or City:

Astronomy

Dec. 17, 2013 Rise Set
Actual Time 7:49 AM CST 4:44 PM CST
Civil Twilight 7:16 AM CST 5:17 PM CST
Nautical Twilight 6:39 AM CST 5:53 PM CST
Astronomical Twilight 6:04 AM CST 6:28 PM CST
Moon 5:26 PM CST (12/17) 7:44 AM CST (12/17)
Length of Visible Light 10h 00m
Length of Day
8h 54m
Full, 100% of the Moon is Illuminated
Dec 17
Full
Dec 25
Last Quarter
Jan 1
New
Jan 7
First Quarter
Jan 15
Full

Hourly Weather History & Observations

Time (CST) Temp. Windchill Dew Point Humidity Pressure Visibility Wind Dir Wind Speed Gust Speed Precip Events Conditions
12:12 AM 24.8 °F 12.4 °F 21.2 °F 86% 29.99 in 10.0 mi WSW 15.0 mph - N/A   Clear
12:33 AM 28.4 °F 17.5 °F 23.0 °F 80% 29.99 in 10.0 mi WSW 13.8 mph - N/A   Clear
12:52 AM 26.6 °F 14.7 °F 23.0 °F 86% 29.98 in 10.0 mi WSW 15.0 mph - N/A   Clear
1:12 AM 26.6 °F 14.3 °F 23.0 °F 86% 29.98 in 10.0 mi WSW 16.1 mph - N/A   Scattered Clouds
1:33 AM 26.6 °F 14.7 °F 24.8 °F 93% 29.98 in 10.0 mi West 15.0 mph - N/A   Scattered Clouds
1:52 AM 26.6 °F 15.7 °F 24.8 °F 93% 29.97 in 10.0 mi West 12.7 mph - N/A   Mostly Cloudy
2:12 AM 28.4 °F 17.5 °F 24.8 °F 86% 29.98 in 10.0 mi West 13.8 mph - N/A   Mostly Cloudy
2:33 AM 30.2 °F 17.1 °F 26.6 °F 86% 29.98 in 10.0 mi West 21.9 mph 26.5 mph N/A   Overcast
2:52 AM 32.0 °F 19.2 °F 26.6 °F 80% 29.99 in 10.0 mi West 23.0 mph 29.9 mph N/A   Mostly Cloudy
3:13 AM 32.0 °F 20.5 °F 26.6 °F 80% 29.98 in 10.0 mi West 18.4 mph - N/A   Mostly Cloudy
3:32 AM 32.0 °F 20.1 °F 28.4 °F 87% 29.98 in 2.0 mi West 19.6 mph 29.9 mph N/A Snow Light Snow
3:52 AM 32.0 °F 20.8 °F 26.6 °F 80% 29.98 in 10.0 mi West 17.3 mph - N/A   Overcast
4:13 AM 32.0 °F 21.2 °F 26.6 °F 80% 29.98 in 10.0 mi West 16.1 mph - N/A   Overcast
4:32 AM 32.0 °F 21.2 °F 26.6 °F 80% 29.98 in 10.0 mi West 16.1 mph 25.3 mph N/A   Overcast
4:52 AM 32.0 °F 20.1 °F 26.6 °F 80% 29.99 in 10.0 mi West 19.6 mph - N/A   Overcast
5:12 AM 30.2 °F 17.1 °F 26.6 °F 86% 30.00 in 10.0 mi WNW 21.9 mph 26.5 mph N/A   Overcast
5:32 AM 30.2 °F 17.4 °F 24.8 °F 80% 30.00 in 10.0 mi WNW 20.7 mph 27.6 mph N/A   Scattered Clouds
5:53 AM 28.4 °F 15.4 °F 24.8 °F 86% 30.00 in 10.0 mi WNW 19.6 mph - N/A   Scattered Clouds
6:12 AM 28.4 °F 15.8 °F 24.8 °F 86% 30.01 in 10.0 mi WNW 18.4 mph 24.2 mph N/A   Scattered Clouds
6:32 AM 28.4 °F 16.6 °F 24.8 °F 86% 30.02 in 10.0 mi WNW 16.1 mph 23.0 mph N/A   Scattered Clouds
6:53 AM 30.2 °F 18.1 °F 24.8 °F 80% 30.02 in 10.0 mi WNW 18.4 mph 25.3 mph N/A   Mostly Cloudy
7:12 AM 26.6 °F 13.8 °F 23.0 °F 86% 30.02 in 10.0 mi West 17.3 mph - N/A   Scattered Clouds
7:32 AM 26.6 °F 13.4 °F 21.2 °F 80% 30.03 in 10.0 mi West 18.4 mph - N/A   Clear
7:53 AM 26.6 °F 12.4 °F 21.2 °F 80% 30.04 in 10.0 mi West 21.9 mph - N/A   Clear
8:12 AM 24.8 °F 11.1 °F 19.4 °F 80% 30.04 in 10.0 mi West 18.4 mph - N/A   Clear
8:32 AM 24.8 °F 11.1 °F 19.4 °F 80% 30.05 in 10.0 mi West 18.4 mph - N/A   Clear
8:53 AM 26.6 °F 14.3 °F 19.4 °F 74% 30.06 in 10.0 mi West 16.1 mph - N/A   Clear
9:12 AM 26.6 °F 14.3 °F 19.4 °F 74% 30.07 in 10.0 mi West 16.1 mph - N/A   Clear
9:32 AM 26.6 °F 12.7 °F 19.4 °F 74% 30.07 in 10.0 mi West 20.7 mph - N/A   Clear
9:52 AM 26.6 °F 12.4 °F 19.4 °F 74% 30.08 in 10.0 mi West 21.9 mph 28.8 mph N/A   Clear
10:12 AM 26.6 °F 12.4 °F 19.4 °F 74% 30.09 in 7.0 mi West 21.9 mph 31.1 mph N/A   Clear
10:33 AM 26.6 °F 11.4 °F 19.4 °F 74% 30.10 in 7.0 mi WNW 25.3 mph 31.1 mph N/A   Clear
10:52 AM 26.6 °F 12.7 °F 19.4 °F 74% 30.10 in 10.0 mi WNW 20.7 mph - N/A   Clear
11:12 AM 26.6 °F 11.7 °F 19.4 °F 74% 30.10 in 10.0 mi WNW 24.2 mph 33.4 mph N/A   Clear
11:33 AM 26.6 °F 11.7 °F 17.6 °F 69% 30.10 in 7.0 mi WNW 24.2 mph 32.2 mph N/A   Clear
11:52 AM 26.6 °F 11.4 °F 17.6 °F 69% 30.10 in 5.0 mi WNW 25.3 mph 33.4 mph N/A   Haze
12:12 PM 26.6 °F 11.7 °F 17.6 °F 69% 30.10 in 7.0 mi WNW 24.2 mph 31.1 mph N/A   Clear
12:33 PM 26.6 °F 12.0 °F 17.6 °F 69% 30.09 in 10.0 mi WNW 23.0 mph 31.1 mph N/A   Clear
12:52 PM 26.6 °F 12.4 °F 17.6 °F 69% 30.09 in 10.0 mi WNW 21.9 mph - N/A   Clear
1:12 PM 26.6 °F 12.4 °F 17.6 °F 69% 30.09 in 10.0 mi WNW 21.9 mph 26.5 mph N/A   Clear
1:33 PM 26.6 °F 12.7 °F 17.6 °F 69% 30.09 in 10.0 mi West 20.7 mph 27.6 mph N/A   Clear
1:52 PM 26.6 °F 12.7 °F 17.6 °F 69% 30.09 in 10.0 mi West 20.7 mph - N/A   Clear
2:12 PM 26.6 °F 13.1 °F 15.8 °F 64% 30.10 in 10.0 mi WNW 19.6 mph 26.5 mph N/A   Clear
2:32 PM 26.6 °F 15.2 °F 17.6 °F 69% 30.10 in 10.0 mi West 13.8 mph - N/A   Clear
2:52 PM 24.8 °F 12.4 °F 17.6 °F 74% 30.10 in 10.0 mi West 15.0 mph - N/A   Clear
3:13 PM 24.8 °F 12.4 °F 17.6 °F 74% 30.10 in 10.0 mi West 15.0 mph - N/A   Clear
3:32 PM 24.8 °F 11.9 °F 15.8 °F 69% 30.11 in 10.0 mi West 16.1 mph - N/A   Clear
3:53 PM 24.8 °F 13.4 °F 15.8 °F 69% 30.11 in 10.0 mi West 12.7 mph - N/A   Clear
4:12 PM 23.0 °F 10.6 °F 15.8 °F 74% 30.11 in 10.0 mi West 13.8 mph - N/A   Clear
4:32 PM 23.0 °F 11.1 °F 15.8 °F 74% 30.11 in 10.0 mi West 12.7 mph - N/A   Clear
4:53 PM 21.2 °F 8.9 °F 15.8 °F 80% 30.11 in 10.0 mi West 12.7 mph - N/A   Clear
5:12 PM 21.2 °F 9.5 °F 15.8 °F 80% 30.11 in 10.0 mi West 11.5 mph - N/A   Clear
5:33 PM 21.2 °F 8.3 °F 15.8 °F 80% 30.11 in 10.0 mi West 13.8 mph - N/A   Clear
5:52 PM 19.4 °F 6.6 °F 15.8 °F 86% 30.10 in 10.0 mi West 12.7 mph - N/A   Clear
6:12 PM 19.4 °F 7.9 °F 14.0 °F 80% 30.11 in 10.0 mi West 10.4 mph - N/A   Clear
6:33 PM 19.4 °F 7.9 °F 14.0 °F 80% 30.11 in 10.0 mi West 10.4 mph - N/A   Clear
6:52 PM 19.4 °F 8.6 °F 14.0 °F 80% 30.11 in 10.0 mi West 9.2 mph - N/A   Clear
7:13 PM 17.6 °F 6.4 °F 12.2 °F 79% 30.11 in 10.0 mi WSW 9.2 mph - N/A   Clear
7:33 PM 17.6 °F 7.3 °F 12.2 °F 79% 30.11 in 10.0 mi West 8.1 mph - N/A   Clear
7:52 PM 15.8 °F 6.1 °F 12.2 °F 86% 30.11 in 10.0 mi WSW 6.9 mph - N/A   Clear
8:13 PM 15.8 °F 5.1 °F 10.4 °F 79% 30.11 in 10.0 mi WSW 8.1 mph - N/A   Clear
8:33 PM 15.8 °F 5.1 °F 10.4 °F 79% 30.11 in 10.0 mi WSW 8.1 mph - N/A   Clear
8:52 PM 14.0 °F 6.5 °F 10.4 °F 86% 30.10 in 10.0 mi WSW 4.6 mph - N/A   Clear
9:13 PM 15.8 °F 10.2 °F 12.2 °F 86% 30.10 in 10.0 mi SSW 3.5 mph - N/A   Clear
9:33 PM 12.2 °F - 10.4 °F 92% 30.09 in 10.0 mi Calm Calm - N/A   Clear
9:52 PM 14.0 °F - 10.4 °F 86% 30.09 in 10.0 mi Calm Calm - N/A   Clear
10:13 PM 12.2 °F - 10.4 °F 92% 30.08 in 10.0 mi Calm Calm - N/A   Clear
10:32 PM 15.8 °F - 12.2 °F 86% 30.08 in 10.0 mi Calm Calm - N/A   Mostly Cloudy
10:52 PM 15.8 °F 10.2 °F 12.2 °F 86% 30.07 in 10.0 mi South 3.5 mph - N/A   Overcast
11:13 PM 15.8 °F 10.2 °F 12.2 °F 86% 30.06 in 10.0 mi South 3.5 mph - N/A   Mostly Cloudy
11:32 PM 15.8 °F 10.2 °F 12.2 °F 86% 30.05 in 10.0 mi SSE 3.5 mph - N/A   Overcast
11:52 PM 17.6 °F 10.7 °F 14.0 °F 86% 30.03 in 10.0 mi South 4.6 mph - N/A   Mostly Cloudy